Regional Weather Roundup
Issued by NWS Newport/Morehead, NC

Current Version | Previous Version | Graphics & Text | Print | Product List | Glossary Off
Versions: 1 2 3 4 5 6 7 8 9 10 11 12 13 14 15 16 17 18 19 20 21 22 23 24 25 26 27 28 29 30 31 32 33 34 35 36 37 38 39 40

000
ASUS42 KMHX 170014
RWRMHX
WEATHER ROUNDUP FOR EASTERN NORTH CAROLINA
NATIONAL WEATHER SERVICE NEWPORT/MOREHEAD CITY NC
800 PM EDT WED AUG 16 2017

NOTE: "FAIR" INDICATES FEW OR NO CLOUDS BELOW 12,000 FEET
WITH NO SIGNIFICANT WEATHER AND/OR OBSTRUCTIONS TO VISIBILITY

NCZ015>017-031-032-045>047-102-103-170100-
NORTH COAST

CITY           SKY/WX    TMP DP  RH WIND       PRES   REMARKS
EDENTON        CLEAR     81  76  83 CALM      30.00S
ELIZABETH CITY CLEAR     79  76  90 E6        30.01R
KITTY HAWK     CLEAR     77  73  88 CALM      29.99S
MANTEO         MOCLDY    78  74  87 E6        30.00S

$$

NCZ045>047-081-094-103-104-170100-
CENTRAL COAST

CITY           SKY/WX    TMP DP  RH WIND       PRES   REMARKS
FRISCO         CLEAR     79  76  90 E5        30.00R

$$

NCZ095-097-098-100-101-170100-
SOUTHERN COAST

CITY           SKY/WX    TMP DP  RH WIND       PRES   REMARKS
BEAUFORT       CLEAR     81  78  91 E3        29.99R
CEDAR ISLAND   NOT AVBL
JACKSONVILLE   PTCLDY    83  79  88 S5        29.98R
PINEY ISLAND   CLEAR    N/A N/A N/A E7        29.99R
WILMINGTON     PTCLDY    81  76  84 SW3       30.00R


$$

NCZ011>013-027>030-043-044-078>080-089-090>093-098-170100-
COASTAL PLAIN

CITY           SKY/WX    TMP DP  RH WIND       PRES   REMARKS
AHOSKIE          N/A     78  75  90 CALM      30.00S
CLINTON        CLEAR     84  75  74 CALM      30.00R
ELIZABETHTOWN  NOT AVBL
GOLDSBORO      CLEAR     84  79  84 VRB3      29.98R
GREENVILLE     CLEAR     82  73  74 CALM      30.01R
HAVELOCK       CLEAR     83  76  79 SE5       30.00R
KENANSVILLE    CLEAR     81  77  89 CALM      29.99S
KINSTON        CLEAR     82  75  78 CALM      30.00R
NEW BERN       CLEAR     83  78  85 CALM      30.00R
RICHLANDS      CLEAR     83  77  82 CALM      30.00R
ROCKY MOUNT    CLEAR     79  76  90 CALM      30.00R
WASHINGTON     CLEAR     83  75  78 CALM      29.99R
WHITEVILLE     CLOUDY    85  75  72 SE6       29.99R

$$

AMZ130-135-150-152-154-156-158-170-250-252-270-ANZ085-086-088-633-658-670-170100-
MARINE OBSERVATIONS

STATION/POSITION TIME  TEMP    WIND        PRES    WAVE   SWELL
                       AIR SEA DIR/SP/G            HT/PER HT/PER
                 (UTC) (F)     (DEG/KT/KT) (MB)    (FT/S) (FT/S)
CHESAPEAKE LIGHT NOT AVBL
64 E VA BEACH    2350   77 79   50/  4/  6 1016.4    2/ 9   2/ 9
DUCK             2336   78 79   80/  6/  7 1015.5
2 E DUCK         0000      79                N/A     2/ 7
OREGON INLET     2348           40/  7/  8 1015.8
13E OREGON INLT  2348      78                N/A     3/ 7   2/ 7
HATTERAS CG      2336   80 84   60/  7/ 10 1015.6
DIAMOND BUOY     2350   80 83   30/ 12/ 14 1015.4    3/ 8   2/ 8
CAPE LOOKOUT     2300   81      80/  8/  8 1014.9
BEAUFORT LAB     2336   82 82  130/  5/  7 1014.9
30 SE NEW RVR IN NOT AVBL
30 SE NEW RVR IN 2343      85                N/A     2/ 7
27 SE WRIGHTSVLE 2308   83 85  240/  6/  8 1015.2
5 SE WRIGHTSVLE  2308   83 84  190/  6/ 12 1015.0
225 S CAPE HAT   2250   84 84  240/ 12/ 14 1015.5    4/ 6   2/ 7
41 SE CHARLESTON 2350   84 84  210/ 10/ 10 1015.1    2/ 5   2/ 7

$$




USA.gov is the U.S. government's official web portal to all federal, state and local government web resources and services.